�������C�����ː����j�^�v���󋵏��
Date,Time,Cs137(Bq/L),Cs134(Bq/L),�S��(Bq/L)
2017/09/24,00:00,0.87,0.025,ND
2017/09/24,00:10,0.88,0.027,ND
2017/09/24,00:20,0.94,ND,ND
2017/09/24,00:30,0.79,0.046,ND
2017/09/24,00:40,0.95,ND,ND
2017/09/24,00:50,0.97,ND,ND
2017/09/24,01:00,0.98,ND,ND
2017/09/24,01:10,0.98,ND,ND
2017/09/24,01:20,0.80,0.045,ND
2017/09/24,01:30,0.95,ND,ND
2017/09/24,01:40,0.95,ND,ND
2017/09/24,01:50,0.92,0.025,ND
2017/09/24,02:00,0.77,0.050,ND
2017/09/24,02:10,0.89,0.027,ND
2017/09/24,02:20,0.89,0.037,ND
2017/09/24,02:30,0.90,0.032,ND
2017/09/24,02:40,0.77,0.060,ND
2017/09/24,02:50,0.77,0.061,ND
2017/09/24,03:00,0.91,0.026,ND
2017/09/24,03:10,0.91,0.036,ND
2017/09/24,03:20,0.92,0.029,ND
2017/09/24,03:30,0.78,0.065,ND
2017/09/24,03:40,0.92,0.036,ND
2017/09/24,03:50,0.99,ND,ND
2017/09/24,04:00,0.84,0.055,ND
2017/09/24,04:10,1.0,ND,ND
2017/09/24,04:20,0.87,0.037,ND
2017/09/24,04:30,0.88,0.039,ND
2017/09/24,04:40,0.89,0.041,ND
2017/09/24,04:50,1.0,0.027,ND
2017/09/24,05:00,0.87,0.054,ND
2017/09/24,05:10,0.85,0.067,ND
2017/09/24,05:20,1.0,0.042,ND
2017/09/24,05:30,0.90,0.062,ND
2017/09/24,05:40,0.89,0.064,ND
2017/09/24,05:50,1.1,0.028,ND
2017/09/24,06:00,1.0,0.027,ND
2017/09/24,06:10,1.1,ND,ND
2017/09/24,06:20,1.0,0.028,ND
2017/09/24,06:30,1.0,0.037,ND
2017/09/24,06:40,1.0,0.031,ND
2017/09/24,06:50,1.0,0.042,ND
2017/09/24,07:00,1.0,0.031,ND
2017/09/24,07:10,1.0,0.025,ND
2017/09/24,07:20,1.1,ND,ND
2017/09/24,07:30,1.1,ND,ND
2017/09/24,07:40,1.1,ND,ND
2017/09/24,07:50,1.1,ND,ND
2017/09/24,08:00,1.0,0.028,ND
2017/09/24,08:10,1.0,0.034,ND
2017/09/24,08:20,1.0,0.039,ND
2017/09/24,08:30,1.0,0.037,ND
2017/09/24,08:40,1.0,0.040,ND
2017/09/24,08:50,1.0,0.037,ND
2017/09/24,09:00,1.0,0.042,ND
2017/09/24,09:10,1.0,0.036,ND
2017/09/24,09:20,1.0,0.036,ND
2017/09/24,09:30,0.86,0.060,ND
2017/09/24,09:40,0.88,0.054,ND
2017/09/24,09:50,1.0,0.028,ND
2017/09/24,10:00,1.0,0.027,ND
2017/09/24,10:10,1.0,ND,ND
2017/09/24,10:20,1.1,ND,ND
2017/09/24,10:30,1.0,0.030,ND
2017/09/24,10:40,1.0,0.033,ND
2017/09/24,10:50,1.0,0.033,ND
2017/09/24,11:00,1.0,0.035,ND
2017/09/24,11:10,1.0,0.046,ND
2017/09/24,11:20,0.97,0.055,ND
2017/09/24,11:30,0.84,0.060,ND
2017/09/24,11:40,0.84,0.053,ND
2017/09/24,11:50,1.0,ND,ND
2017/09/24,12:00,1.0,ND,ND
2017/09/24,12:10,0.87,0.048,ND
2017/09/24,12:20,0.86,0.049,ND
2017/09/24,12:30,0.83,0.063,ND
2017/09/24,12:40,0.95,0.041,ND
2017/09/24,12:50,0.83,0.064,ND
2017/09/24,13:00,0.80,0.071,ND
2017/09/24,13:10,0.80,0.061,ND
2017/09/24,13:20,0.83,0.062,ND
2017/09/24,13:30,0.85,0.056,ND
2017/09/24,13:40,0.85,0.058,ND
2017/09/24,13:50,0.98,0.043,ND
2017/09/24,14:00,0.99,0.030,ND
2017/09/24,14:10,0.99,0.036,ND
2017/09/24,14:20,0.96,0.040,ND
2017/09/24,14:30,0.97,0.034,ND
2017/09/24,14:40,0.96,0.032,ND
2017/09/24,14:50,0.84,0.057,ND
2017/09/24,15:00,0.84,0.065,ND
2017/09/24,15:10,0.83,0.063,ND
2017/09/24,15:20,0.84,0.060,ND
2017/09/24,15:30,0.84,0.060,ND
2017/09/24,15:40,0.86,0.057,ND
2017/09/24,15:50,0.85,0.057,ND
2017/09/24,16:00,0.86,0.067,ND
2017/09/24,16:10,1.0,0.038,ND
2017/09/24,16:20,1.0,0.037,ND
2017/09/24,16:30,1.0,0.047,ND
2017/09/24,16:40,1.0,0.044,ND
2017/09/24,16:50,1.1,0.034,ND
2017/09/24,17:00,1.1,ND,ND
2017/09/24,17:10,1.1,0.032,ND
2017/09/24,17:20,1.1,0.041,ND
2017/09/24,17:30,1.1,0.027,ND
2017/09/24,17:40,1.0,0.031,ND
2017/09/24,17:50,1.0,0.039,ND
2017/09/24,18:00,1.0,0.043,ND
2017/09/24,18:10,1.0,0.039,ND
2017/09/24,18:20,1.0,0.042,ND
2017/09/24,18:30,1.0,0.048,ND
2017/09/24,18:40,1.1,0.050,ND
2017/09/24,18:50,1.1,0.053,ND
2017/09/24,19:00,1.1,0.049,ND
2017/09/24,19:10,1.1,0.044,ND
2017/09/24,19:20,1.1,0.042,ND
2017/09/24,19:30,1.1,0.037,ND
2017/09/24,19:40,1.1,0.036,ND
2017/09/24,19:50,1.1,0.032,ND
2017/09/24,20:00,1.1,0.036,ND
2017/09/24,20:10,1.1,0.032,ND
2017/09/24,20:20,1.1,0.042,ND
2017/09/24,20:30,1.1,0.052,ND
2017/09/24,20:40,1.1,0.053,ND
2017/09/24,20:50,1.1,0.055,ND
2017/09/24,21:00,1.1,0.049,ND
2017/09/24,21:10,1.1,0.051,ND
2017/09/24,21:20,1.2,0.053,ND
2017/09/24,21:30,1.2,0.048,ND
2017/09/24,21:40,1.2,0.052,ND
2017/09/24,21:50,1.0,0.080,ND
2017/09/24,22:00,1.2,0.049,ND
2017/09/24,22:10,1.1,0.046,ND
2017/09/24,22:20,1.1,0.040,ND
2017/09/24,22:30,1.1,0.030,ND
2017/09/24,22:40,1.1,0.030,ND
2017/09/24,22:50,1.1,ND,ND
2017/09/24,23:00,1.1,0.038,ND
2017/09/24,23:10,1.0,0.039,ND
2017/09/24,23:20,1.0,0.039,ND
2017/09/24,23:30,1.0,0.044,ND
2017/09/24,23:40,0.99,0.044,ND
2017/09/24,23:50,1.0,0.040,ND
